Lid_Strength_Index
7 8 7 7 11 12 15 14 12 11 11 10 8 9 9 9 10 12 3 1 -0 0 -0 -0 -1 -2 -2 -1 -1 -2 -2 -2 -2 -2 -2 -2 -2 -2 -2 -2 -2 -3 -2 -2 -2 -2 -2 -2 -2
9 8 8 10 13 15 14 13 11 11 8 6 7 7 8 11 6 4 3 0 -0 -0 -0 -0 -1 -2 -2 -2 -1 -2 -2 -2 -2 -2 -2 -2 -2 -2 -2 -2 -3 -2 -2 -2 -2 -2 -2 -2 -2
8 9 9 12 14 14 14 13 11 9 7 9 8 6 8 9 6 4 2 0 -0 0 -0 -0 -1 -2 -2 -2 -2 -2 -2 -2 -3 -2 -2 -2 -2 -2 -2 -2 -2 -2 -2 -2 -2 -2 -2 -2 -2
9 10 11 13 14 13 13 12 9 9 10 7 7 9 7 4 4 2 0 0 1 0 0 -0 -1 -2 -2 -2 -2 -2 -2 -2 -2 -2 -2 -2 -2 -2 -2 -2 -2 -2 -2 -2 -2 -2 -2 -2 -2
10 12 14 15 14 13 12 10 9 10 10 9 7 10 9 4 2 1 0 1 1 1 0 0 -1 -1 -2 -2 -2 -2 -2 -2 -2 -2 -2 -2 -2 -2 -2 -2 -2 -2 -2 -2 -2 -2 -2 -2 -2
12 13 15 16 15 12 11 10 9 10 10 8 8 9 9 4 2 1 1 2 1 0 0 0 1 -1 -1 -2 -2 -2 -2 -1 -2 -2 -2 -2 -2 -2 -2 -2 -2 -2 -2 -2 -2 -2 -2 -2 -2
13 14 16 16 15 12 10 10 10 10 9 8 6 9 9 4 2 1 2 1 0 0 0 1 0 0 0 -1 -1 -2 -2 -2 -2 -2 -2 -2 -2 -2 -2 -2 -2 -2 -2 -2 -2 -2 -2 -2 -2
11 14 17 18 15 12 11 10 10 9 10 6 6 9 10 5 2 1 2 2 0 0 0 1 1 1 0 0 0 -0 -1 -1 -1 -1 -1 -0 -1 -1 -1 -1 -2 -2 -2 -2 -2 -2 -2 -2 -2
11 15 17 16 15 12 11 11 11 9 9 8 6 6 5 3 1 2 2 1 1 1 1 1 1 1 1 0 1 1 -0 -0 -0 -0 -0 1 1 1 0 -0 -1 -2 -2 -2 -2 -2 -1 -1 -1
12 16 15 15 14 12 11 11 10 10 8 8 8 6 3 2 3 3 3 3 2 2 1 1 1 1 1 -0 1 1 0 1 1 1 1 1 1 1 1 1 -0 -1 -1 -2 -2 -2 -0 1 3
13 14 14 14 14 12 11 12 10 10 10 8 7 6 4 4 3 3 3 3 3 2 1 1 1 1 -0 -0 -1 -1 2 1 1 1 1 1 2 2 2 2 2 2 1 2 2 2 2 3 3
14 13 14 14 14 13 11 11 11 10 10 9 5 4 4 4 4 4 3 3 3 3 2 1 1 1 0 -0 0 -0 1 2 1 1 1 2 2 3 3 3 3 3 2 3 3 3 3 3 3
14 14 13 14 14 14 11 11 12 10 10 7 4 4 5 4 4 3 3 3 2 3 3 2 2 1 0 0 0 0 0 2 2 1 1 1 2 3 3 3 3 3 3 3 3 3 3 3 3
14 14 15 14 15 15 13 12 12 11 8 6 5 5 5 4 4 5 5 3 3 3 3 2 1 1 0 0 0 1 2 2 2 2 2 2 2 3 3 3 3 3 3 3 3 3 3 4 4
11 15 15 15 15 15 14 14 11 12 8 7 6 6 5 5 5 4 4 3 3 2 2 2 1 1 1 0 -0 0 1 1 2 1 2 2 2 3 3 3 3 3 3 3 4 4 4 4 4
15 16 17 16 14 15 15 15 11 11 8 7 7 6 6 5 4 4 4 4 3 3 3 2 1 1 1 1 1 1 1 1 1 1 -0 1 1 2 3 4 3 3 4 4 4 4 4 5 5
17 19 18 16 15 15 15 14 13 12 9 9 7 7 6 6 5 4 4 4 3 3 3 2 2 2 1 1 1 1 0 0 -0 -1 -0 1 1 1 2 2 4 3 4 5 5 5 5 5 5
19 19 19 18 16 16 16 13 12 13 12 11 10 7 6 6 5 4 4 3 3 3 3 2 2 1 1 1 1 -0 -0 -0 -0 0 -0 1 1 1 2 2 3 3 5 5 6 6 6 6 6
16 17 19 18 16 16 16 15 13 13 14 13 13 12 9 6 4 6 5 4 3 3 3 3 3 3 2 2 2 1 1 1 1 1 0 1 1 2 2 3 3 3 3 4 4 5 4 4 5
17 18 19 18 16 16 17 16 13 13 13 12 12 13 12 10 9 10 9 5 3 3 3 3 3 3 2 2 3 2 2 0 0 0 1 0 1 2 2 3 3 3 4 4 4 5 5 5 5
18 17 19 18 17 17 18 18 17 14 13 12 12 12 12 11 10 10 11 10 4 3 2 2 2 3 2 2 3 4 2 1 1 1 1 1 1 1 2 2 3 3 4 4 4 5 5 6 7
19 16 17 16 18 20 18 21 19 17 14 14 12 12 11 11 11 11 11 11 8 3 3 2 2 2 2 2 3 3 2 3 2 2 2 1 1 1 1 2 3 3 4 4 4 5 5 5 5
16 15 16 18 19 20 21 21 19 19 17 14 12 11 11 10 11 11 11 10 10 7 5 5 4 4 3 3 2 3 3 2 3 3 1 1 1 1 1 1 2 3 3 3 4 5 5 4 4
15 16 17 19 20 22 20 20 21 19 16 14 13 13 13 13 12 11 11 9 8 7 6 6 7 7 5 3 3 3 3 4 4 3 3 2 1 1 1 1 2 2 3 4 4 4 4 4 5
16 17 21 22 23 22 21 22 18 16 16 15 14 14 13 14 13 11 9 8 8 7 6 6 6 8 9 8 3 2 2 3 3 2 2 3 2 2 2 2 2 3 3 3 4 4 4 4 5
17 17 21 24 24 22 20 22 19 15 15 14 14 14 13 13 12 11 10 9 8 7 7 7 7 8 8 9 8 2 1 1 2 2 3 3 3 3 3 2 3 3 3 3 4 4 4 5 5
17 18 16 21 28 23 21 20 17 14 15 15 15 14 13 13 12 11 10 10 10 8 8 7 7 7 6 7 8 4 3 1 2 4 4 5 5 6 5 5 6 6 6 5 5 5 6 6 6
15 13 17 19 24 25 23 21 19 17 15 15 15 14 13 13 12 11 10 10 10 9 9 8 8 7 6 5 5 4 3 3 4 5 6 6 6 6 6 6 7 7 7 6 6 7 7 7 7
16 17 17 17 19 23 24 21 17 15 15 15 14 14 13 13 12 11 11 11 11 11 10 10 9 9 8 6 6 5 5 5 7 6 6 7 7 6 7 7 8 8 8 8 8 8 8 9 9
15 15 15 17 21 21 21 20 17 16 15 15 14 14 13 12 12 11 12 12 12 11 11 10 10 9 9 8 7 7 7 7 7 9 10 10 10 9 10 10 11 11 11 11 10 10 10 10 11